User: anonymous   Login
Location: Oshawa
(43.9000°N, 78.8670°W)
Time: 20:31:32
(UTC-04:00)
Language:

Cosmos 1707 Rocket - Orbit

View from above orbital plane
View from above orbital plane
View from above satellite
View from above satellite

Ground track
Ground track

The orbit data is extracted from the following two-line orbital elements,

1 16327U 85113B   17085.78786755 +.00000109 +00000-0 +10405-4 0  9995
2 16327 082.5368 169.4370 0017518 259.3745 246.2811 14.83346563689662
Epoch (UTC): 26 March 2017 18:54:31
Eccentricity: 0.0017518
inclination: 82.5368°
perigee height: 606 km
apogee height: 631 km
right ascension of ascending node: 169.4370°
argument of perigee: 259.3745°
revolutions per day: 14.83346563
mean anomaly at epoch: 246.2811°
orbit number at epoch: 68966

The dashed part of the orbit path shows where the satellite is in the earth's shadow,  

DLR